This is the latest recevied weather packets stored in our database for station/object DO1BDB-12. If no packets are shown the sender has not sent any weather packets the latest 10 day(s).
| Time | Temp. | Humidity | Pressure | Rain* | Wind** | Luminosity | Snow |
|---|---|---|---|---|---|---|---|
| 1777296497 | 18.89° C | 30% | 102.3 hPa | - | - | - | - |
| 1777296432 | 20° C | 30% | 102.3 hPa | - | - | - | - |
| 1777296366 | 19.44° C | 30% | 102.3 hPa | - | - | - | - |
| 1777296300 | 20° C | 30% | 102.3 hPa | - | - | - | - |
| 1777296234 | 18.89° C | 32% | 102.3 hPa | - | - | - | - |
| 1777296168 | 18.89° C | 28% | 102.3 hPa | - | - | - | - |
| 1777296102 | 19.44° C | 32% | 102.3 hPa | - | - | - | - |
| 1777296036 | 18.89° C | 33% | 102.3 hPa | - | - | - | - |
| 1777295971 | 16.67° C | 31% | 102.3 hPa | - | - | - | - |
| 1777295905 | 18.89° C | 32% | 102.3 hPa | - | - | - | - |
| 1777295839 | 18.33° C | 30% | 102.3 hPa | - | - | - | - |
| 1777295773 | 20° C | 32% | 102.3 hPa | - | - | - | - |
| 1777295707 | 19.44° C | 34% | 102.3 hPa | - | - | - | - |
| 1777295642 | 18.89° C | 32% | 102.3 hPa | - | - | - | - |
| 1777295576 | 18.89° C | 32% | 102.3 hPa | - | - | - | - |
| 1777295510 | 20° C | 31% | 102.3 hPa | - | - | - | - |
| 1777295444 | 20° C | 30% | 102.3 hPa | - | - | - | - |
| 1777295378 | 20° C | 31% | 102.3 hPa | - | - | - | - |
| 1777295312 | 19.44° C | 33% | 102.3 hPa | - | - | - | - |
| 1777295246 | 20.56° C | 31% | 102.3 hPa | - | - | - | - |
| 1777295181 | 20° C | 32% | 102.3 hPa | - | - | - | - |
| 1777295115 | 18.89° C | 32% | 102.3 hPa | - | - | - | - |
| 1777295049 | 18.33° C | 34% | 102.3 hPa | - | - | - | - |
| 1777294983 | 20° C | 31% | 102.4 hPa | - | - | - | - |
| 1777294917 | 20° C | 31% | 102.3 hPa | - | - | - | - |
* Rain since midnight (hover to see other rain measurements)
** Current wind speed in m/s (hover to see current wind gust speed)